This is the latest recevied weather packets stored in our database for station/object W0DXV. If no packets are shown the sender has not sent any weather packets the latest 10 day(s).
| Time | Temp. | Humidity | Pressure | Rain* | Wind** | Luminosity | Snow |
|---|---|---|---|---|---|---|---|
| 1777836669 | 19.44° C | 30% | 1013.4 hPa | 0 mm | - | 627 W/m² | - |
| 1777836365 | 19.44° C | 33% | 1013.7 hPa | 0 mm | - | 639 W/m² | - |
| 1777836061 | 19.44° C | 31% | 1013.6 hPa | 0 mm | - | 645 W/m² | - |
| 1777835758 | 18.89° C | 31% | 1013.9 hPa | 0 mm | - | 660 W/m² | - |
| 1777835454 | 18.89° C | 32% | 1013.8 hPa | 0 mm | - | 668 W/m² | - |
| 1777835151 | 19.44° C | 32% | 1014.1 hPa | 0 mm | - | 678 W/m² | - |
| 1777834849 | 18.89° C | 30% | 1013.9 hPa | 0 mm | - | 686 W/m² | - |
| 1777834545 | 18.89° C | 30% | 1014 hPa | 0 mm | - | 694 W/m² | - |
| 1777834245 | 18.89° C | 30% | 1014.3 hPa | 0 mm | - | 702 W/m² | - |
| 1777833941 | 18.89° C | 30% | 1014.3 hPa | 0 mm | - | 711 W/m² | - |
| 1777833638 | 18.89° C | 30% | 1014.2 hPa | 0 mm | - | 716 W/m² | - |
| 1777833334 | 18.33° C | 29% | 1014.4 hPa | 0 mm | - | 722 W/m² | - |
| 1777833031 | 18.33° C | 31% | 1014.3 hPa | 0 mm | - | 727 W/m² | - |
| 1777832730 | 18.33° C | 30% | 1014.6 hPa | 0 mm | - | 735 W/m² | - |
| 1777832428 | 18.89° C | 29% | 1014.7 hPa | 0 mm | - | 740 W/m² | - |
| 1777832124 | 18.33° C | 30% | 1014.8 hPa | 0 mm | - | 747 W/m² | - |
| 1777831820 | 18.89° C | 30% | 1015 hPa | 0 mm | - | 751 W/m² | - |
| 1777831518 | 18.89° C | 30% | 1014.5 hPa | 0 mm | - | 756 W/m² | - |
| 1777831215 | 17.78° C | 31% | 1014.8 hPa | 0 mm | - | 761 W/m² | - |
| 1777830913 | 17.78° C | 30% | 1014.9 hPa | 0 mm | - | 763 W/m² | - |
| 1777830609 | 18.33° C | 31% | 1014.8 hPa | 0 mm | - | 768 W/m² | - |
| 1777830307 | 17.78° C | 33% | 1014.8 hPa | 0 mm | - | 771 W/m² | - |
| 1777830003 | 16.67° C | 32% | 1015.2 hPa | 0 mm | - | 775 W/m² | - |
| 1777829698 | 17.22° C | 33% | 1015.1 hPa | 0 mm | - | 776 W/m² | - |
| 1777829395 | 17.22° C | 31% | 1015.1 hPa | 0 mm | - | 778 W/m² | - |
* Rain latest hour (hover to see other rain measurements)
** Current wind speed in m/s (hover to see current wind gust speed)